• In Netherlands
  • List of Countries
  • For 7 days
  • Water Temperature
  • Satellite Maps
  • Weather Map
  • Weather Widgets
  • user-avatar
    Login

    Hourly Weather Portland

    Today, 23 November, Thursday

    Time Temperature Precipitation Wind Pressure Humidity
    00:00 +16°C° 0.6 mm 2 mps 759 mmHg 94%
    01:00 +16°C° 0.6 mm 2 mps 759 mmHg 95%
    02:00 +16°C° 1.2 mm 3 mps 759 mmHg 95%
    03:00 +17°C° 1.2 mm 3 mps 758 mmHg 95%
    04:00 +17°C° 1.2 mm 3 mps 758 mmHg 95%
    05:00 +15°C° 1.2 mm 4 mps 758 mmHg 95%
    06:00 +15°C° 1.2 mm 4 mps 758 mmHg 95%
    07:00 +15°C° 1.2 mm 4 mps 758 mmHg 94%
    08:00 +15°C° 1.1 mm 4 mps 758 mmHg 94%
    09:00 +15°C° 1.1 mm 4 mps 758 mmHg 93%
    10:00 +15°C° 1.1 mm 4 mps 758 mmHg 92%
    11:00 +14°C° 0.9 mm 4 mps 758 mmHg 90%
    12:00 +14°C° 0.9 mm 4 mps 758 mmHg 89%
    13:00 +14°C° 0.9 mm 4 mps 758 mmHg 87%
    14:00 +14°C° 0.9 mm 4 mps 758 mmHg 87%
    15:00 +13°C° 0.9 mm 3 mps 758 mmHg 87%
    16:00 +12°C° 0.9 mm 3 mps 758 mmHg 87%
    17:00 +12°C° 0.2 mm 3 mps 759 mmHg 88%
    18:00 +12°C° 0.2 mm 2 mps 759 mmHg 89%
    19:00 +11°C° 0.2 mm 1 mps 760 mmHg 90%
    20:00 +10°C° 0.1 mm 1 mps 760 mmHg 91%
    21:00 +9°C° 0.1 mm 2 mps 761 mmHg 92%
    22:00 +9°C° 0.1 mm 2 mps 761 mmHg 92%
    23:00 +9°C° 0.1 mm 2 mps 762 mmHg 93%

    Tomorrow, 24 November, Friday

    Time Temperature Precipitation Wind Pressure Humidity
    00:00 +9°C° 0.1 mm 2 mps 762 mmHg 93%
    01:00 +8°C° 0.1 mm 2 mps 762 mmHg 93%
    02:00 +8°C° 0.2 mm 2 mps 762 mmHg 94%
    03:00 +8°C° 0.2 mm 2 mps 763 mmHg 94%
    04:00 +8°C° 0.2 mm 2 mps 763 mmHg 94%
    05:00 +8°C° 0.2 mm 2 mps 763 mmHg 94%
    06:00 +8°C° 0.2 mm 2 mps 763 mmHg 95%
    07:00 +9°C° 0.2 mm 1 mps 763 mmHg 95%
    08:00 +9°C° 0.1 mm 2 mps 763 mmHg 93%
    09:00 +9°C° 0.1 mm 2 mps 763 mmHg 91%
    10:00 +10°C° 0.1 mm 2 mps 763 mmHg 89%
    11:00 +10°C° 0.2 mm 2 mps 763 mmHg 86%
    12:00 +12°C° 0.2 mm 2 mps 762 mmHg 83%
    13:00 +11°C° 0.2 mm 3 mps 762 mmHg 80%
    14:00 +12°C° 0.1 mm 2 mps 762 mmHg 80%
    15:00 +12°C° 0.1 mm 2 mps 762 mmHg 81%
    16:00 +12°C° 0.1 mm 1 mps 762 mmHg 81%
    17:00 +11°C° 0 mm 1 mps 762 mmHg 82%
    18:00 +10°C° 0 mm 1 mps 762 mmHg 83%
    19:00 +9°C° 0 mm 1 mps 762 mmHg 84%
    20:00 +9°C° 0 mm 1 mps 762 mmHg 82%
    21:00 +9°C° 0 mm 1 mps 762 mmHg 79%
    22:00 +9°C° 0 mm 1 mps 762 mmHg 77%
    23:00 +9°C° 0 mm 1 mps 761 mmHg 76%

    Day after tomorrow, 25 November, Saturday

    Time Temperature Precipitation Wind Pressure Humidity
    00:00 +9°C° 0 mm 1 mps 761 mmHg 75%
    01:00 +8°C° 0 mm 1 mps 760 mmHg 75%
    02:00 +8°C° 0 mm 1 mps 760 mmHg 74%
    03:00 +9°C° 0 mm 1 mps 759 mmHg 74%
    04:00 +9°C° 0 mm 1 mps 759 mmHg 73%
    05:00 +9°C° 0.4 mm 1 mps 758 mmHg 76%
    06:00 +9°C° 0.4 mm 1 mps 758 mmHg 79%
    07:00 +8°C° 0.4 mm 1 mps 757 mmHg 82%
    08:00 +9°C° 0.4 mm 1 mps 756 mmHg 83%
    09:00 +9°C° 0.4 mm 1 mps 756 mmHg 84%
    10:00 +9°C° 0.4 mm 1 mps 755 mmHg 84%
    11:00 +9°C° 0.5 mm 1 mps 754 mmHg 85%
    12:00 +10°C° 0.5 mm 1 mps 753 mmHg 86%
    13:00 +10°C° 0.5 mm 1 mps 753 mmHg 87%
    14:00 +10°C° 0.6 mm 1 mps 752 mmHg 88%
    15:00 +10°C° 0.6 mm 1 mps 751 mmHg 89%
    16:00 +10°C° 0.6 mm 2 mps 750 mmHg 90%
    17:00 +10°C° 0.4 mm 2 mps 749 mmHg 90%
    18:00 +10°C° 0.4 mm 2 mps 749 mmHg 90%
    19:00 +12°C° 0.4 mm 2 mps 748 mmHg 90%
    20:00 +12°C° 0.4 mm 2 mps 747 mmHg 90%
    21:00 +12°C° 0.4 mm 2 mps 746 mmHg 89%
    22:00 +12°C° 0.4 mm 2 mps 746 mmHg 89%
    23:00 +12°C° 1.7 mm 2 mps 745 mmHg 90%

    26 November, Sunday

    Time Temperature Precipitation Wind Pressure Humidity
    00:00 +12°C° 1.7 mm 2 mps 745 mmHg 91%
    01:00 +12°C° 1.7 mm 2 mps 745 mmHg 91%
    02:00 +12°C° 1 mm 3 mps 745 mmHg 90%
    03:00 +12°C° 1 mm 4 mps 746 mmHg 89%
    04:00 +12°C° 1 mm 5 mps 746 mmHg 88%
    05:00 +10°C° 1.3 mm 6 mps 747 mmHg 87%
    06:00 +10°C° 1.3 mm 7 mps 748 mmHg 85%
    07:00 +9°C° 1.3 mm 8 mps 749 mmHg 83%
    08:00 +9°C° 0.9 mm 7 mps 751 mmHg 84%
    09:00 +8°C° 0.9 mm 6 mps 753 mmHg 84%
    10:00 +8°C° 0.9 mm 5 mps 754 mmHg 84%
    11:00 +8°C° 0.4 mm 4 mps 754 mmHg 81%
    12:00 +10°C° 0.4 mm 4 mps 755 mmHg 78%
    13:00 +10°C° 0.4 mm 3 mps 755 mmHg 75%
    14:00 +10°C° 0.2 mm 3 mps 754 mmHg 77%
    15:00 +9°C° 0.2 mm 2 mps 754 mmHg 79%
    16:00 +10°C° 0.2 mm 1 mps 754 mmHg 82%
    17:00 +9°C° 0.4 mm 1 mps 754 mmHg 83%
    18:00 +9°C° 0.4 mm 1 mps 754 mmHg 85%
    19:00 +7°C° 0.4 mm 2 mps 754 mmHg 86%
    20:00 +7°C° 1 mm 2 mps 754 mmHg 87%
    21:00 +7°C° 1 mm 2 mps 755 mmHg 88%
    22:00 +7°C° 1 mm 2 mps 756 mmHg 89%
    23:00 +7°C° 0.4 mm 2 mps 757 mmHg 89%

    27 November, Monday

    Time Temperature Precipitation Wind Pressure Humidity
    00:00 +7°C° 0.4 mm 2 mps 758 mmHg 90%
    01:00 +7°C° 0.4 mm 2 mps 759 mmHg 90%
    02:00 +7°C° 0.3 mm 2 mps 760 mmHg 90%
    03:00 +6°C° 0.3 mm 2 mps 761 mmHg 91%
    04:00 +6°C° 0.3 mm 2 mps 762 mmHg 91%
    05:00 +7°C° 0.2 mm 1 mps 763 mmHg 92%
    06:00 +7°C° 0.2 mm 1 mps 764 mmHg 93%
    07:00 +6°C° 0.2 mm 1 mps 765 mmHg 93%
    08:00 +7°C° 0 mm 1 mps 766 mmHg 91%
    09:00 +8°C° 0 mm 1 mps 767 mmHg 89%
    10:00 +9°C° 0 mm 1 mps 768 mmHg 87%
    11:00 +9°C° 0 mm 2 mps 768 mmHg 83%
    12:00 +9°C° 0 mm 2 mps 768 mmHg 80%
    13:00 +10°C° 0 mm 2 mps 769 mmHg 76%
    14:00 +10°C° 0.1 mm 2 mps 769 mmHg 79%
    15:00 +10°C° 0.1 mm 2 mps 769 mmHg 82%
    16:00 +9°C° 0.1 mm 2 mps 769 mmHg 85%
    17:00 +9°C° 0.2 mm 2 mps 769 mmHg 86%
    18:00 +9°C° 0.2 mm 2 mps 770 mmHg 86%
    19:00 +9°C° 0.2 mm 2 mps 770 mmHg 87%
    20:00 +8°C° 0.4 mm 2 mps 770 mmHg 87%
    21:00 +8°C° 0.4 mm 2 mps 770 mmHg 87%
    22:00 +8°C° 0.4 mm 2 mps 770 mmHg 88%
    23:00 +8°C° 0.3 mm 2 mps 771 mmHg 88%

    28 November, Tuesday

    Time Temperature Precipitation Wind Pressure Humidity
    00:00 +10°C° 0.3 mm 1 mps 771 mmHg 89%
    01:00 +10°C° 0.3 mm 1 mps 771 mmHg 89%
    02:00 +10°C° 0.1 mm 1 mps 771 mmHg 90%
    03:00 +10°C° 0.1 mm 1 mps 771 mmHg 90%
    04:00 +10°C° 0.1 mm 1 mps 772 mmHg 90%
    05:00 +10°C° 0 mm 1 mps 772 mmHg 90%
    06:00 +10°C° 0 mm 1 mps 772 mmHg 91%
    07:00 +10°C° 0 mm 1 mps 772 mmHg 91%
    08:00 +10°C° 0 mm 1 mps 772 mmHg 89%
    09:00 +11°C° 0 mm 1 mps 772 mmHg 87%
    10:00 +12°C° 0 mm 1 mps 772 mmHg 86%
    11:00 +13°C° 0 mm 1 mps 771 mmHg 83%
    12:00 +14°C° 0 mm 1 mps 770 mmHg 80%
    13:00 +15°C° 0 mm 2 mps 770 mmHg 77%
    14:00 +15°C° 0 mm 2 mps 769 mmHg 80%
    15:00 +14°C° 0 mm 2 mps 768 mmHg 83%
    16:00 +13°C° 0 mm 2 mps 768 mmHg 85%
    17:00 +12°C° 0 mm 2 mps 768 mmHg 85%
    18:00 +12°C° 0 mm 2 mps 768 mmHg 85%
    19:00 +10°C° 0 mm 2 mps 768 mmHg 86%
    20:00 +9°C° 0 mm 2 mps 767 mmHg 85%
    21:00 +9°C° 0 mm 2 mps 767 mmHg 84%
    22:00 +9°C° 0 mm 2 mps 767 mmHg 83%
    23:00 +8°C° 0 mm 2 mps 767 mmHg 83%
    Show more